Date String (YYYY-MM-DD hh:mm:ss) UTC,Instrument flags,Ambient pressure (hPa),Sample flow (lpm),Bypass flow (lpm),Sample temperature (°C),Ambient temperature (°C),ASC tube jacket temperature (°C),LED temperature (°C),Box temperature (°C),Sample RH (%),Span deviation,Mass concentration (μg/m³),Mass concentration (μg/m³),Mass concentration (μg/m³)
DateTimeUTC,F1_M11,P_M11,Q1_M11,Q2_M11,T1_M11,T2_M11,T3_M11,T4_M11,T5_M11,U1_M11,ZSPAN_M11,X0_M11,X2_M11,X1_M11
2022-01-08 10:00:00,,0813.2,4.99,0.00,22.0,21.4,00.0,31.1,23.8,12.7,0000.0,0000.81,0000.47,0000.42
2022-01-08 10:01:00,,0813.1,5.00,0.00,22.0,21.5,00.0,31.1,23.9,12.7,0000.0,0000.94,0000.49,0000.42
2022-01-08 10:02:00,,0813.1,5.00,0.00,22.1,21.5,00.0,31.1,23.9,12.8,0000.0,0001.89,0000.50,0000.42
2022-01-08 10:03:00,,0813.1,5.00,0.00,22.1,21.5,00.0,31.1,23.9,12.9,0000.0,0001.82,0000.51,0000.42
2022-01-08 10:04:00,,0813.2,5.02,0.00,22.1,21.5,00.0,31.1,23.9,12.8,0000.0,0001.84,0000.52,0000.42
2022-01-08 10:05:00,,0813.1,4.99,0.00,22.1,21.5,00.0,31.1,23.9,12.8,0000.0,0001.86,0000.53,0000.42
2022-01-08 10:06:00,,0813.1,5.00,0.00,22.1,21.6,00.0,31.1,23.9,13.0,0000.0,0001.78,0000.54,0000.42
2022-01-08 10:07:00,,0813.1,4.99,0.00,22.1,21.6,00.0,31.1,23.9,13.0,0000.0,0001.77,0000.54,0000.42
2022-01-08 10:08:00,,0813.1,5.00,0.00,22.1,21.6,00.0,31.1,23.9,13.0,0000.0,0001.76,0000.53,0000.41
2022-01-08 10:09:00,,0813.1,5.00,0.00,22.1,21.6,00.0,31.1,23.9,13.0,0000.0,0001.80,0000.54,0000.41
2022-01-08 10:10:00,,0813.1,5.00,0.00,22.1,21.6,00.0,31.1,23.9,13.0,0000.0,0001.80,0000.54,0000.42
2022-01-08 10:11:00,,0813.1,5.01,0.00,22.1,21.6,00.0,31.2,23.9,13.0,0000.0,0001.74,0000.52,0000.42
2022-01-08 10:12:00,,0813.2,5.02,0.00,22.1,21.6,00.0,31.2,23.9,12.8,0000.0,0001.57,0000.50,0000.42
2022-01-08 10:13:00,,0813.1,4.99,0.00,22.1,21.6,00.0,31.2,23.9,12.8,0000.0,0000.66,0000.51,0000.42
2022-01-08 10:14:00,,0813.1,5.00,0.00,22.1,21.6,00.0,31.2,23.9,12.8,0000.0,0000.63,0000.49,0000.43
2022-01-08 10:15:00,,0813.1,5.01,0.00,22.1,21.6,00.0,31.2,23.9,12.7,0000.0,0000.64,0000.49,0000.43
2022-01-08 10:16:00,,0813.0,4.98,0.00,22.1,21.6,00.0,31.2,23.9,12.8,0000.0,0000.65,0000.49,0000.43
2022-01-08 10:17:00,,0813.0,5.02,0.00,22.2,21.6,00.0,31.2,24.0,12.7,0000.0,0000.63,0000.48,0000.43
2022-01-08 10:18:00,,0813.1,4.99,0.00,22.2,21.6,00.0,31.2,24.0,12.7,0000.0,0000.63,0000.48,0000.43
2022-01-08 10:19:00,,0813.0,5.01,0.00,22.2,21.6,00.0,31.2,24.0,12.6,0000.0,0000.63,0000.48,0000.44
2022-01-08 10:20:00,,0813.1,5.00,0.00,22.2,21.6,00.0,31.2,24.0,12.6,0000.0,0000.66,0000.51,0000.43
2022-01-08 10:21:00,,0813.1,5.00,0.00,22.2,21.7,00.0,31.2,24.0,12.6,0000.0,0000.69,0000.52,0000.43
2022-01-08 10:22:00,,0813.1,4.99,0.00,22.2,21.7,00.0,31.2,24.0,12.7,0000.0,0000.72,0000.54,0000.44
2022-01-08 10:23:00,,0813.1,5.00,0.00,22.2,21.7,00.0,31.2,24.1,12.7,0000.0,0000.75,0000.55,0000.44
2022-01-08 10:24:00,,0813.0,5.00,0.00,22.3,21.7,00.0,31.2,24.1,12.6,0000.0,0000.74,0000.55,0000.43
2022-01-08 10:25:00,,0813.1,5.00,0.00,22.3,21.7,00.0,31.3,24.1,12.6,0000.0,0000.73,0000.54,0000.42
2022-01-08 10:26:00,,0813.1,5.00,0.00,22.2,21.7,00.0,31.3,24.0,12.6,0000.0,0000.72,0000.53,0000.42
2022-01-08 10:27:00,,0813.1,4.98,0.00,22.2,21.7,00.0,31.3,24.0,12.5,0000.0,0000.70,0000.53,0000.42
2022-01-08 10:28:00,,0813.1,5.00,0.00,22.2,21.6,00.0,31.3,23.9,12.5,0000.0,0000.72,0000.53,0000.42
2022-01-08 10:29:00,,0813.1,5.01,0.00,22.2,21.5,00.0,31.2,23.9,12.5,0000.0,0000.73,0000.53,0000.42
2022-01-08 10:30:00,,0813.1,5.00,0.00,22.1,21.5,00.0,31.2,23.8,12.5,0000.0,0000.73,0000.54,0000.42
2022-01-08 10:31:00,,0813.3,5.00,0.00,22.1,21.5,00.0,31.2,23.8,12.5,0000.0,0000.68,0000.51,0000.42
2022-01-08 10:32:00,,0813.1,5.00,0.00,22.1,21.5,00.0,31.2,23.9,12.5,0000.0,0000.64,0000.50,0000.42
2022-01-08 10:33:00,,0813.0,5.00,0.00,22.2,21.5,00.0,31.2,23.9,12.5,0000.0,0000.95,0000.48,0000.41
2022-01-08 10:34:00,,0813.2,5.00,0.00,22.2,21.6,00.0,31.2,24.0,12.5,0000.0,0001.48,0000.47,0000.41
2022-01-08 10:35:00,,0813.1,5.01,0.00,22.2,21.6,00.0,31.2,24.0,12.5,0000.0,0001.48,0000.46,0000.41
2022-01-08 10:36:00,,0813.1,4.99,0.00,22.2,21.7,00.0,31.3,24.1,12.4,0000.0,0001.48,0000.46,0000.41
2022-01-08 10:37:00,,0813.1,5.00,0.00,22.3,21.7,00.0,31.3,24.1,12.4,0000.0,0001.48,0000.46,0000.41
2022-01-08 10:38:00,,0813.1,5.00,0.00,22.3,21.7,00.0,31.3,24.1,12.3,0000.0,0002.63,0000.47,0000.41
2022-01-08 10:39:00,,0813.0,5.00,0.00,22.3,21.7,00.0,31.3,24.1,12.4,0000.0,0002.65,0000.46,0000.41
2022-01-08 10:40:00,,0813.2,4.99,0.00,22.2,21.7,00.0,31.3,24.0,12.4,0000.0,0002.63,0000.46,0000.41
2022-01-08 10:41:00,,0813.1,5.01,0.00,22.2,21.7,00.0,31.3,24.0,12.4,0000.0,0002.65,0000.47,0000.42
2022-01-08 10:42:00,,0813.1,5.00,0.00,22.2,21.7,00.0,31.3,24.0,12.4,0000.0,0002.67,0000.47,0000.42
2022-01-08 10:43:00,,0813.1,4.99,0.00,22.3,21.7,00.0,31.3,24.1,12.4,0000.0,0002.68,0000.48,0000.43
2022-01-08 10:44:00,,0813.0,5.00,0.00,22.3,21.7,00.0,31.3,24.1,12.3,0000.0,0002.47,0000.49,0000.43
2022-01-08 10:45:00,,0813.0,5.00,0.00,22.3,21.8,00.0,31.3,24.1,12.3,0000.0,0001.86,0000.51,0000.44
2022-01-08 10:46:00,,0813.0,4.99,0.00,22.3,21.8,00.0,31.3,24.1,12.3,0000.0,0001.86,0000.52,0000.44
2022-01-08 10:47:00,,0813.1,5.01,0.00,22.3,21.7,00.0,31.3,24.1,12.3,0000.0,0001.86,0000.52,0000.44
2022-01-08 10:48:00,,0813.1,4.99,0.00,22.3,21.7,00.0,31.3,24.1,12.3,0000.0,0001.85,0000.51,0000.44
2022-01-08 10:49:00,,0813.3,5.01,0.00,22.3,21.7,00.0,31.3,24.1,12.3,0000.0,0000.90,0000.51,0000.45
2022-01-08 10:50:00,,0813.1,5.02,0.00,22.3,21.7,00.0,31.3,24.1,12.4,0000.0,0000.70,0000.52,0000.45
2022-01-08 10:51:00,,0813.0,4.98,0.00,22.3,21.7,00.0,31.3,24.2,12.3,0000.0,0000.75,0000.53,0000.45
2022-01-08 10:52:00,,0813.1,5.01,0.00,22.3,21.7,00.0,31.3,24.1,12.3,0000.0,0000.83,0000.53,0000.45
2022-01-08 10:53:00,,0813.1,5.00,0.00,22.3,21.7,00.0,31.3,24.1,12.3,0000.0,0000.83,0000.53,0000.45
2022-01-08 10:54:00,,0812.9,4.99,0.00,22.3,21.7,00.0,31.3,24.1,12.4,0000.0,0000.84,0000.53,0000.45
2022-01-08 10:55:00,,0812.9,4.99,0.00,22.3,21.7,00.0,31.3,24.1,12.3,0000.0,0000.84,0000.54,0000.45
2022-01-08 10:56:00,,0812.9,5.00,0.00,22.3,21.7,00.0,31.3,24.0,12.4,0000.0,0000.81,0000.52,0000.44
2022-01-08 10:57:00,,0812.9,4.99,0.00,22.3,21.6,00.0,31.3,24.0,12.4,0000.0,0000.81,0000.52,0000.45
2022-01-08 10:58:00,,0812.9,5.00,0.00,22.3,21.6,00.0,31.3,24.1,12.4,0000.0,0000.82,0000.53,0000.45
2022-01-08 10:59:00,,0813.2,5.01,0.00,22.3,21.7,00.0,31.3,24.1,12.4,0000.0,0000.82,0000.53,0000.46
